Location: Coche
(10.4506°N, 66.9257°W)
Time: 05:57:47
(UTC+00:00)

YAOGAN 1 - Pass Details

Date: 10 July 2022
Orbit: 617 x 619 km, 97.9° (Epoch: 12 August)

Event Time Altitude Azimuth Distance (km) Brightness Sun altitude
Exits shadow 00:03:19 - 183° (S) 2,798 5.7 -16.3°
Reaches altitude 10° 00:05:24 10° 190° (S) 1,978 5.0 -16.7°
Maximum altitude 00:09:24 39° 259° (W) 936 3.9 -17.6°
Drops below altitude 10° 00:13:25 10° 328° (NNW) 1,978 6.0 -18.5°
Sets 00:15:43 0° 336° (NNW) 2,883 6.8 -19.0°
